McHenry, MD

5:30 PM EST on December 08, 2016 (GMT -0500)
Oakland

Weather History for K2G4 - November, 2012

Change the Weather History Date:

Sunday, November 11, 2012

  Actual Average (KMGW) Record (KMGW)
Temperature  
Mean Temperature 57 °F -  
Max Temperature 64 °F 50 °F 75 °F (2012)
Min Temperature 50 °F 36 °F 17 °F (1973)
Degree Days  
Heating Degree Days 8    
Growing Degree Days 7 (Base 50)    
Moisture  
Dew Point 30 °F    
Average Humidity 40    
Maximum Humidity 62    
Minimum Humidity 21    
Precipitation  
Precipitation 0.00 in - - ()
Sea Level Pressure  
Sea Level Pressure 30.35 in    
Wind  
Wind Speed 10 mph (South)    
Max Wind Speed 16 mph    
Max Gust Speed 25 mph    
Visibility 10 miles    
Events      
Averages and records for this station are not official NWS values.
T = Trace of Precipitation, MM = Missing Value Source: NWS Daily Summary

Daily Weather History Graph

Daily Weather History Graph

Search for Another Location

Airport or City:

Trip Planner

Search our weather history database for the weather conditions in past years. The results will help you decide how hot, cold, wet, or windy it might be!

Date:

Astronomy

Nov. 11, 2012 Rise Set
Actual Time 6:57 AM EST 5:04 PM EST
Civil Twilight 6:28 AM EST 5:33 PM EST
Nautical Twilight 5:56 AM EST 6:05 PM EST
Astronomical Twilight 5:24 AM EST 6:37 PM EST
Moon 4:09 AM EST (11/11) 3:27 PM EST (11/11)
Length of Visible Light 11h 04m
Length of Day
10h 07m
Waning Crescent, 7% of the Moon is Illuminated
Nov 11
Waning Crescent
Nov 13
New
Nov 20
First Quarter
Nov 28
Full
Dec 6
Last Quarter

Hourly Weather History & Observations

Time (EST) Temp. Dew Point Humidity Pressure Visibility Wind Dir Wind Speed Gust Speed Precip Events Conditions
12:15 AM 50.0 °F 32.0 °F 50% 30.33 in 10.0 mi South 10.4 mph - N/A   Clear
12:35 AM 51.8 °F 32.0 °F 47% 30.33 in 10.0 mi South 9.2 mph - N/A   Clear
12:55 AM 50.0 °F 32.0 °F 50% 30.33 in 10.0 mi South 9.2 mph - N/A   Clear
1:15 AM 51.8 °F 32.0 °F 47% 30.32 in 10.0 mi South 9.2 mph - N/A   Clear
1:40 AM 51.8 °F 32.0 °F 47% 30.32 in 10.0 mi South 9.2 mph - N/A   Clear
2:00 AM 53.6 °F 32.0 °F 44% 30.32 in 10.0 mi SSW 9.2 mph - N/A   Clear
2:20 AM 51.8 °F 32.0 °F 47% 30.33 in 10.0 mi SSW 10.4 mph - N/A   Clear
2:40 AM 51.8 °F 32.0 °F 47% 30.33 in 10.0 mi South 9.2 mph - N/A   Clear
3:05 AM 51.8 °F 32.0 °F 47% 30.32 in 10.0 mi SSW 10.4 mph - N/A   Clear
3:25 AM 51.8 °F 32.0 °F 47% 30.33 in 10.0 mi SSW 9.2 mph - N/A   Clear
3:45 AM 51.8 °F 32.0 °F 47% 30.33 in 10.0 mi South 9.2 mph - N/A   Clear
4:05 AM 51.8 °F 32.0 °F 47% 30.33 in 10.0 mi SSW 8.1 mph - N/A   Clear
4:30 AM 51.8 °F 32.0 °F 47% 30.34 in 10.0 mi SSW 8.1 mph - N/A   Clear
4:50 AM 51.8 °F 32.0 °F 47% 30.35 in 10.0 mi South 9.2 mph - N/A   Clear
5:10 AM 51.8 °F 30.2 °F 44% 30.35 in 10.0 mi South 9.2 mph - N/A   Clear
5:30 AM 51.8 °F 30.2 °F 44% 30.36 in 10.0 mi SSW 8.1 mph - N/A   Clear
5:55 AM 51.8 °F 28.4 °F 41% 30.36 in 10.0 mi SSW 8.1 mph - N/A   Clear
6:15 AM 51.8 °F 28.4 °F 41% 30.37 in 10.0 mi South 8.1 mph - N/A   Clear
6:35 AM 51.8 °F 28.4 °F 41% 30.37 in 10.0 mi South 6.9 mph - N/A   Clear
7:20 AM 53.6 °F 26.6 °F 35% 30.39 in 10.0 mi South 8.1 mph - N/A   Clear
7:40 AM 55.4 °F 26.6 °F 33% 30.40 in 10.0 mi SSW 5.8 mph - N/A   Clear
8:20 AM 59.0 °F 26.6 °F 29% 30.41 in 10.0 mi SW 5.8 mph - N/A   Clear
9:45 AM 59.0 °F 26.6 °F 29% 30.43 in 10.0 mi West 5.8 mph - N/A   Clear
10:10 AM 59.0 °F 26.6 °F 29% 30.43 in 10.0 mi West 5.8 mph - N/A   Clear
10:30 AM 59.0 °F 26.6 °F 29% 30.43 in 10.0 mi West 3.5 mph - N/A   Clear
10:50 AM 59.0 °F 26.6 °F 29% 30.42 in 10.0 mi WSW 4.6 mph - N/A   Clear
11:10 AM 59.0 °F 26.6 °F 29% 30.42 in 10.0 mi SW 4.6 mph - N/A   Clear
11:35 AM 59.0 °F 26.6 °F 29% 30.40 in 10.0 mi South 5.8 mph - N/A   Clear
11:55 AM 60.8 °F 28.4 °F 29% 30.39 in 10.0 mi SE 5.8 mph - N/A   Clear
12:15 PM 60.8 °F 26.6 °F 27% 30.38 in 10.0 mi South 6.9 mph - N/A   Clear
12:35 PM 60.8 °F 24.8 °F 25% 30.37 in 10.0 mi South 8.1 mph - N/A   Clear
1:20 PM 62.6 °F 23.0 °F 22% 30.34 in 10.0 mi SSE 8.1 mph - N/A   Clear
1:40 PM 62.6 °F 23.0 °F 22% 30.34 in 10.0 mi SSE 9.2 mph - N/A   Clear
2:00 PM 62.6 °F 23.0 °F 22% 30.33 in 10.0 mi SSE 10.4 mph - N/A   Clear
2:25 PM 62.6 °F 23.0 °F 22% 30.33 in 10.0 mi SSE 8.1 mph - N/A   Clear
2:45 PM 64.4 °F 23.0 °F 21% 30.32 in 10.0 mi ESE 8.1 mph - N/A   Clear
3:05 PM 60.8 °F 30.2 °F 31% 30.33 in 10.0 mi SE 9.2 mph - N/A   Clear
3:25 PM 60.8 °F 30.2 °F 31% 30.33 in 10.0 mi SE 11.5 mph - N/A   Clear
3:50 PM 60.8 °F 30.2 °F 31% 30.32 in 10.0 mi SE 9.2 mph - N/A   Clear
4:10 PM 59.0 °F 28.4 °F 31% 30.32 in 10.0 mi SE 10.4 mph - N/A   Clear
4:30 PM 59.0 °F 28.4 °F 31% 30.32 in 10.0 mi ESE 11.5 mph - N/A   Clear
4:50 PM 55.4 °F 30.2 °F 38% 30.33 in 10.0 mi SE 9.2 mph 18.4 mph N/A   Clear
5:15 PM 53.6 °F 32.0 °F 44% 30.34 in 10.0 mi SE 11.5 mph - N/A   Clear
5:35 PM 53.6 °F 32.0 °F 44% 30.34 in 10.0 mi ESE 11.5 mph - N/A   Clear
5:55 PM 53.6 °F 32.0 °F 44% 30.34 in 10.0 mi ESE 12.7 mph 18.4 mph N/A   Clear
6:15 PM 51.8 °F 33.8 °F 50% 30.35 in 10.0 mi SE 11.5 mph - N/A   Clear
6:40 PM 51.8 °F 33.8 °F 50% 30.35 in 10.0 mi SE 11.5 mph - N/A   Clear
7:00 PM 51.8 °F 33.8 °F 50% 30.34 in 10.0 mi SE 13.8 mph - N/A   Clear
7:20 PM 51.8 °F 33.8 °F 50% 30.34 in 10.0 mi SSE 15.0 mph 19.6 mph N/A   Clear
7:40 PM 51.8 °F 32.0 °F 47% 30.33 in 10.0 mi SSE 15.0 mph - N/A   Clear
8:05 PM 53.6 °F 32.0 °F 44% 30.33 in 10.0 mi SSE 15.0 mph 20.7 mph N/A   Clear
8:25 PM 53.6 °F 32.0 °F 44% 30.33 in 10.0 mi SSE 16.1 mph 21.9 mph N/A   Clear
8:45 PM 51.8 °F 32.0 °F 47% 30.33 in 10.0 mi SSE 16.1 mph - N/A   Clear
9:05 PM 51.8 °F 32.0 °F 47% 30.33 in 10.0 mi SSE 15.0 mph 25.3 mph N/A   Clear
9:30 PM 51.8 °F 32.0 °F 47% 30.33 in 10.0 mi SSE 16.1 mph 20.7 mph N/A   Clear
9:50 PM 51.8 °F 32.0 °F 47% 30.33 in 10.0 mi South 16.1 mph 21.9 mph N/A   Clear
10:10 PM 51.8 °F 33.8 °F 50% 30.33 in 10.0 mi SSE 13.8 mph - N/A   Clear
11:15 PM 50.0 °F 35.6 °F 58% 30.31 in 10.0 mi SSE 16.1 mph - N/A   Clear
11:35 PM 50.0 °F 35.6 °F 58% 30.31 in 10.0 mi SSE 12.7 mph - N/A   Clear
11:55 PM 50.0 °F 37.4 °F 62% 30.31 in 10.0 mi SSE 15.0 mph - N/A   Clear